Regional Weather Roundup
Issued by NWS

Home | Current Version | Previous Version | Text Only | Print | Product List | Glossary Off
Versions: 1 2 3 4 5 6 7 8 9 10 11 12 13 14 15 16 17 18 19 20 21 22 23 24 25 26 27

000
ASUS45 KBOI 160110
RWRID
WEATHER ROUNDUP FOR IDAHO
NATIONAL WEATHER SERVICE BOISE ID
700 PM MDT TUE APR 15 2014

NOTE: "FAIR" INDICATES FEW OR NO CLOUDS BELOW 12000 FEET
WITH NO SIGNIFICANT WEATHER AND/OR OBSTRUCTIONS TO VISIBILITY

IDZ012-014-160200-
SOUTHWEST IDAHO


CITY           SKY/WX    TMP DP  RH WIND       PRES   REMARKS
BOISE          MOSUNNY   57  22  25 NW16      29.95S
CALDWELL       MOSUNNY   61  23  23 N20       29.98S
MOUNTAIN HOME  MOSUNNY   59  22  23 NW24      29.92S
$$

IDZ016-017-160200-
SOUTHCENTRAL IDAHO


CITY           SKY/WX    TMP DP  RH WIND       PRES   REMARKS
BURLEY         LGT RAIN  54  23  30 W29G41    29.86R
JEROME         SUNNY     53  22  29 W26G40    29.90R
TWIN FALLS     SUNNY     55  22  27 W30G40    29.90S
$$

IDZ019>023-160200-
SOUTHEAST IDAHO


CITY           SKY/WX    TMP DP  RH WIND       PRES   REMARKS
IDAHO FALLS    PTSUNNY   55  20  25 N29G37    29.75R BLWGDUST
POCATELLO      MOSUNNY   54  21  27 W32G47    29.80R
REXBURG        MOSUNNY   49  19  30 NW13G33   29.76R
$$

IDZ006-010-011-018-031-032-160200-
CENTRAL IDAHO MOUNTAINS


CITY           SKY/WX    TMP DP  RH WIND       PRES   REMARKS
MCCALL         MOSUNNY   43   7  22 W10       29.95R
HAILEY         MOSUNNY   50  10  20 W18G35    29.86
STANLEY          N/A     35  24  64 N10       29.94R WCI  27
SALMON         MOSUNNY   46  21  36 SW6       29.91F
CHALLIS        CLOUDY    46  15  28 N14G25    29.88R
$$

IDZ002-004-006-007-026-160200-
NORTHERN IDAHO


CITY           SKY/WX    TMP DP  RH WIND       PRES   REMARKS
LEWISTON       PTSUNNY   60  17  18 W18G31    29.94F
LOWELL           N/A     47  44  90 CALM      30.00R
COEUR D`ALENE  PTSUNNY   48  36  61 E12       29.90S
MULLAN PASS    PTSUNNY   28  27  93 NW8       29.88S FOG     WCI  20
$$



USA.gov is the U.S. government's official web portal to all federal, state and local government web resources and services.